カタログに戻る

SL-8 DEB

運用中LEO
NORAD 21936·DEBRIS·🇷🇺 Russia

打ち上げ Feb 12, 1991 から Plesetsk Cosmodrome

Loading…

次のパス (今後24時間)

TLE

最新Source: Space-Track

元期: Sep 14, 2026, 10:26 UTC

1 21936U 91009CD  26257.43497756 -.00000012  00000-0  46575-5 0  9993
2 21936  74.0641 314.0271 0261650  74.3866 302.0451 12.01231349519474

AllMySatでSL-8 DEBをリアルタイム追跡

Download on the App Store